Regional Weather Roundup
Issued by NWS

Home | Current Version | Previous Version | Graphics & Text | Print | Product List | Glossary On
Versions: 1 2 3 4 5 6 7 8 9 10 11 12 13 14 15 16 17 18 19 20 21 22 23 24
000
ASUS45 KBOI 220710
RWRID

IDAHO REGIONAL WEATHER ROUNDUP
NATIONAL WEATHER SERVICE BOISE ID
100 AM MDT SAT APR 22 2017

NOTE: "FAIR" INDICATES FEW OR NO CLOUDS BELOW 12000 FEET
WITH NO SIGNIFICANT WEATHER AND/OR OBSTRUCTIONS TO VISIBILITY

IDZ012-014-220800-
SOUTHWEST IDAHO


CITY           SKY/WX    TMP DP  RH WIND       PRES   REMARKS
BOISE          CLEAR     44  32  62 SE9       30.20F
CALDWELL       CLEAR     42  34  73 E5        30.20F
MOUNTAIN HOME  CLEAR     34  30  84 S5        30.21F WCI  30
$$

IDZ016-017-220800-
SOUTHCENTRAL IDAHO


CITY           SKY/WX    TMP DP  RH WIND       PRES   REMARKS
BURLEY         CLEAR     37  25  61 SW5       30.25S WCI  33
JEROME         CLEAR     37  27  67 E10       30.26R WCI  30
TWIN FALLS     CLEAR     32  26  78 S8        30.25S WCI  25
$$

IDZ019>023-220800-
SOUTHEAST IDAHO


CITY           SKY/WX    TMP DP  RH WIND       PRES   REMARKS
IDAHO FALLS    CLEAR     35  31  85 N7        30.28R WCI  29
POCATELLO      CLEAR     33  29  85 SW8       30.27S WCI  26
REXBURG        CLEAR     32  30  92 NE6       30.27R WCI  26
$$

IDZ006-010-011-018-031-032-220800-
CENTRAL IDAHO MOUNTAINS


CITY           SKY/WX    TMP DP  RH WIND       PRES   REMARKS
MCCALL         CLEAR     31  25  78 CALM      30.21F
HAILEY         CLEAR     37  28  70 NW6       30.28S WCI  33
STANLEY          N/A     25  15  66 SE3       30.27F
SALMON         CLEAR     34  27  75 CALM      30.27S
CHALLIS        CLEAR     30  19  63 SE7       30.26S WCI  23
$$

IDZ002-004-006-007-026-220800-
NORTHERN IDAHO


CITY           SKY/WX    TMP DP  RH WIND       PRES   REMARKS
LEWISTON       PTCLDY    44  36  73 E6        30.21F
LOWELL           N/A     40  37  89 CALM      30.32R
COEUR D`ALENE  CLEAR     39  36  89 E5        30.25F
MULLAN PASS    CLEAR     33  28  81 SE6       30.25F WCI  28
$$




USA.gov is the U.S. government's official web portal to all federal, state and local government web resources and services.